This demonstration page uses our WeatherBlox Daily Observations layout. Learn more.

Hourly Observations for August 1, 2017

Temp ( °F °C ) Dew Point ( °F °C ) Humidity (%) Winds ( mph kmh ) Pressure ( in mb ) Visibility ( mi km ) Precip ( " mm )
12:54 am 00:54 Mostly Clear 68 20 62 16.7 81 81 Calm 30.1 1019 N/A 0 0
1:54 am 01:54 Clear 65 18.3 62 16.7 90 90 NNE 5 7 30.11 1020 N/A 0 0
2:54 am 02:54 Clear 70 21.1 64 17.8 82 82 Calm 30.1 1019 N/A 0 0
3:54 am 03:54 Clear 69 20.6 64 17.8 84 84 W 3 6 30.1 1019 N/A 0 0
4:54 am 04:54 Clear 66 18.9 63 17.2 90 90 WNW 3 6 30.09 1019 N/A 0 0
5:54 am 05:54 Clear 67 19.4 64 17.8 91 91 NW 3 6 30.1 1019 10 16.0934 0 0
6:54 am 06:54 Partly Cloudy 66 18.9 63 17.2 90 90 SW 3 6 30.11 1020 10 16.0934 0 0
7:54 am 07:54 Sunny 69 20.6 65 18.3 87 87 Calm 30.11 1020 10 16.0934 0 0
8:54 am 08:54 Mostly Cloudy 73 22.8 66 18.9 79 79 NW 7 11 30.12 1020 10 16.0934 0 0
9:54 am 09:54 Mostly Cloudy 75 23.9 67 19.4 76 76 Calm 30.11 1020 10 16.0934 0 0
10:54 am 10:54 Cloudy 80 26.7 66 18.9 62 62 NNE 5 7 30.12 1020 10 16.0934 0 0
11:54 am 11:54 Mostly Cloudy 80 26.7 64 17.8 58 58 Calm 30.11 1020 10 16.0934 0 0
12:54 pm 12:54 Mostly Cloudy 81 27.2 66 18.9 61 61 WNW 6 9 30.11 1020 10 16.0934 0 0
1:54 pm 13:54 Mostly Sunny 85 29.4 66 18.9 53 53 NNW 3 6 30.09 1019 10 16.0934 0 0
2:54 pm 14:54 Partly Cloudy 85 29.4 65 18.3 51 51 NW 8 13 30.07 1018 10 16.0934 0 0
3:54 pm 15:54 Mostly Sunny 86 30 65 18.3 49 49 VRB 5 7 30.05 1018 10 16.0934 0 0
4:54 pm 16:54 Mostly Cloudy 85 29.4 65 18.3 51 51 NW 9 15 30.06 1018 10 16.0934 0 0
5:54 pm 17:54 Sunny 86 30 66 18.9 51 51 N 6 9 30.05 1018 10 16.0934 0 0
6:54 pm 18:54 Sunny 85 29.4 65 18.3 51 51 NW 9 15 30.06 1018 10 16.0934 0 0
7:54 pm 19:54 Mostly Sunny 78 25.6 61 16.1 56 56 N 20 31 30.08 1019 10 16.0934 0 0
8:54 pm 20:54 Clear 72 22.2 61 16.1 68 68 NNE 5 7 30.05 1018 10 16.0934 0 0
9:54 pm 21:54 Clear 72 22.2 60 15.6 66 66 SE 8 13 30.04 1017 10 16.0934 0 0
10:54 pm 22:54 Clear 72 22.2 61 16.1 68 68 NW 7 11 30.09 1019 10 16.0934 0 0
11:54 pm 23:54 Clear 72 22.2 62 16.7 71 71 NNW 8 13 30.11 1020 10 16.0934 0 0

Powered by AerisWeather